Aérodrome :
LOGIN :

S'inscrire | Disclaimer

   EN    FR    IT 

 










Légende :    VFR   VFR Marginal   IFR   IFR Intensif   IFR Très Intensif
Visi : 
Plafond : 
>= 8 km
>= 3000ft
5 à 8 km
1000 à 3000 ft
1500m à 5 km
500 à 1000 ft
800 à 1500m
200 à 500 ft
< 800m
< 200 ft
Symboles :   Orages  Brouillard  Fortes neiges  Fortes précipitations  Vent > 20 kt
SIGMETs :   Divers  Orages  Givrage  Turbulence  Onde Orograph.  Cendres Volcan.







- Altitude de l'aérodrome : 9 ft
- Code IATA : MIR


DTMB - Habib Bourguliba Int. Monastir

DERNIER METAR :
  • 192300Z 13003KT 6000 FEW023 22/20 Q1013

METARs EXPIRÉS :
  • 192230Z 14004KT 6000 FEW023 22/20 Q1014
  • 192200Z 13006KT 8000 FEW023 22/19 Q1013
  • 192130Z 13006KT 8000 FEW023 22/19 Q1014
  • 192100Z 14005KT 8000 FEW023 22/19 Q1014
  • 192030Z 14007KT 8000 FEW023 23/19 Q1014

TAF TAF DTMB
Valide du 19 à 18h jusqu'au 20 à 18h UTC


191700Z 1918/2018 15015KT 9999 FEW030
TEMPO 2008/2018 03020G35KT 4000 TS RA SCT033CB
Pas de NOTAMs connus pour ce terrain.



MET'MAP, la Météo Aéronautique d'un coup d'oeil ! - Copyright ORBIFLY Décembre 2007 - Disclaimer

ORBIFLY MET'MAP TEAM :

Programmation & Développement : Alexandra Zaïnal
Conception & Développement : Baudouin d'Aumeries
Co-Programmation & Développement : Marc-Olivier Méhu
Soutien technique & logistique : Manuel Goepfert

Contact : metmap@orbifly.com




SOURCES & CREDITS :

   NOAA